Date,TemperatureHighF,TemperatureAvgF,TemperatureLowF,DewpointHighF,DewpointAvgF,DewpointLowF,HumidityHigh,HumidityAvg,HumidityLow,PressureMaxIn,PressureMinIn,WindSpeedMaxMPH,WindSpeedAvgMPH,GustSpeedMaxMPH,PrecipitationSumIn
2013-1-1,32,23,8,29,14,4,89,71,52,0.00,40.00,11,3,17,0.00
2013-1-2,21,16,8,15,11,5,89,80,73,0.00,40.00,9,6,13,0.00
2013-1-3,29,21,9,24,13,1,85,72,61,0.00,40.00,14,9,21,0.00
2013-1-4,29,23,19,22,17,13,81,75,67,0.00,40.00,21,13,32,0.00
2013-1-5,35,26,17,29,21,14,87,79,67,0.00,40.00,14,8,22,0.00
2013-1-6,36,34,31,31,28,26,87,79,71,0.00,40.00,14,10,24,0.00
2013-1-7,34,29,20,26,24,18,94,81,69,0.00,40.00,17,8,23,0.00
2013-1-8,37,30,22,28,24,18,86,78,64,0.00,40.00,11,7,16,0.00
2013-1-9,45,38,30,34,31,26,89,75,58,0.00,40.00,17,10,24,0.00
2013-1-10,39,32,24,32,28,23,94,85,69,0.00,40.00,9,4,14,0.00
2013-1-11,59,47,35,52,43,31,96,87,74,0.00,40.00,25,10,34,0.55
2013-1-12,59,52,43,52,48,43,97,86,75,0.00,40.00,13,8,20,0.00
2013-1-13,49,42,35,49,40,31,99,96,89,0.00,40.00,13,5,21,11.20
2013-1-14,35,27,24,31,20,15,88,74,63,0.00,40.00,15,6,24,0.00
2013-1-15,29,26,22,20,17,15,80,69,58,0.00,40.00,8,3,12,0.00
2013-1-16,35,30,25,25,23,20,93,74,57,0.00,40.00,17,7,26,0.00
2013-1-17,40,32,21,29,22,8,92,68,48,0.00,40.00,11,5,20,0.00
2013-1-18,32,24,20,19,15,8,82,67,56,0.00,40.00,17,-4,25,0.00
2013-1-19,49,46,43,33,31,29,67,56,47,0.00,40.00,23,16,36,0.00
2013-1-20,44,30,20,34,16,6,70,56,42,0.00,40.00,25,15,45,0.00
2013-1-23,18,16,13,13,5,0,88,62,46,0.00,40.00,14,8,21,1.10
2013-1-24,20,15,8,13,6,0,89,70,41,0.00,40.00,13,4,21,1.69
2013-1-25,20,18,15,18,12,6,92,77,65,0.00,40.00,13,6,16,2.75
2013-1-26,28,23,15,20,16,11,92,76,55,0.00,40.00,7,-3,14,0.00
2013-1-27,32,23,10,26,16,7,91,77,64,0.00,40.00,12,6,18,2.24
2013-1-28,48,42,32,47,40,25,99,94,75,0.00,40.00,17,11,25,5.07
2013-1-29,60,50,36,54,47,36,99,93,81,0.00,40.00,22,10,32,2.20
2013-1-30,63,53,35,57,49,28,97,85,77,0.00,40.00,35,17,44,1.65
2013-1-31,35,22,17,28,12,5,80,64,54,0.00,40.00,22,14,37,1.65
2013-2-1,20,15,12,9,6,3,77,65,50,0.00,40.00,17,12,29,0.00
2013-2-2,24,19,14,19,14,5,89,80,67,0.00,40.00,15,9,19,3.30
2013-2-3,21,16,7,15,10,4,85,76,66,0.00,40.00,14,6,21,1.10
2013-2-4,24,20,17,21,17,12,93,86,72,0.00,40.00,9,5,15,5.54
2013-2-5,28,23,18,25,19,16,94,86,70,0.00,40.00,12,5,16,2.24
2013-2-6,30,24,15,26,15,10,90,68,49,0.00,40.00,9,4,15,0.00
2013-2-7,36,29,20,30,23,14,92,77,62,0.00,40.00,10,6,18,2.24
2013-2-8,33,29,24,32,25,16,98,84,67,0.00,40.00,14,7,26,13.51
2013-2-9,30,23,15,21,18,13,92,81,65,0.00,40.00,8,4,12,0.00
2013-2-10,46,34,21,39,26,17,92,72,53,0.00,40.00,23,8,29,0.00
2013-2-11,47,39,33,42,31,22,91,73,58,0.00,40.00,25,17,43,0.00
2013-2-12,35,32,27,26,23,21,84,69,62,0.00,40.00,16,7,25,0.00
2013-2-13,35,29,26,25,23,20,88,77,66,0.00,40.00,9,-10,14,0.00
2013-2-14,42,36,28,35,30,23,88,79,59,0.00,40.00,22,12,35,0.00
2013-2-15,36,30,26,25,20,14,79,65,49,0.00,40.00,11,5,19,0.00
2013-2-16,27,22,18,21,14,10,90,71,57,0.00,40.00,9,4,17,0.00
2013-2-17,25,19,14,13,9,4,84,64,43,0.00,40.00,9,4,17,0.00
2013-2-18,41,25,17,23,13,7,75,62,46,0.00,40.00,24,12,30,0.00
2013-2-19,26,22,18,19,12,8,74,66,57,0.00,40.00,24,15,37,0.00
2013-2-20,23,20,17,14,10,6,87,65,53,0.00,40.00,16,9,27,0.00
2013-2-21,24,22,21,18,15,12,82,72,65,0.00,40.00,12,6,18,0.55
2013-2-22,36,29,22,35,26,16,98,89,76,0.00,40.00,17,9,26,2.79
2013-2-23,35,31,29,31,23,18,89,71,57,0.00,40.00,14,8,22,0.00
2013-2-24,37,30,23,26,22,17,81,70,58,0.00,40.00,12,6,23,0.00
2013-2-25,38,30,21,29,25,20,95,80,56,0.00,40.00,10,4,16,0.00
2013-2-26,33,31,30,32,28,24,97,86,78,0.00,40.00,16,10,29,7.33
2013-2-27,37,35,33,35,33,30,96,92,88,0.00,40.00,16,10,24,1.65
2013-2-28,39,34,31,34,30,26,97,87,74,0.00,40.00,11,6,17,1.65
2013-3-1,31,28,26,26,22,20,85,77,72,0.00,40.00,11,7,19,0.00
2013-3-2,30,27,25,23,20,17,92,77,69,0.00,40.00,12,6,19,3.30
2013-3-3,30,25,21,20,16,13,85,69,51,0.00,40.00,9,4,14,0.00
2013-3-4,35,26,18,23,18,15,88,72,50,0.00,40.00,7,2,12,0.00
2013-3-5,31,27,25,26,23,21,89,84,79,0.00,40.00,16,9,29,0.00
2013-3-6,37,32,29,29,27,24,86,80,71,0.00,40.00,16,6,24,0.00
2013-3-7,39,35,30,31,27,19,85,74,57,0.00,40.00,9,4,16,0.00
2013-3-8,41,32,24,28,23,19,90,71,51,0.00,40.00,6,3,10,0.00
2013-3-9,42,34,27,33,28,25,93,80,58,0.00,40.00,12,6,17,0.00
2013-3-10,60,54,46,40,37,34,64,53,43,0.00,40.00,24,11,29,0.00
2013-3-11,56,50,38,49,43,32,87,76,54,0.00,40.00,27,17,36,3.85
2013-3-12,38,34,31,33,28,24,89,78,64,0.00,40.00,19,11,28,0.00
2013-3-13,33,30,26,28,21,15,92,68,54,0.00,40.00,17,10,27,2.24
2013-3-14,43,32,22,22,18,15,78,58,39,0.00,40.00,12,6,20,0.00
2013-3-15,45,36,30,37,30,21,95,77,61,0.00,40.00,12,6,18,5.54
2013-3-16,35,32,30,34,30,27,97,93,84,0.00,40.00,12,6,22,2.24
2013-3-17,31,29,26,27,20,16,85,70,60,0.00,40.00,14,7,21,0.00
2013-3-18,40,33,28,39,29,20,98,86,70,0.00,40.00,19,11,26,3.39
2013-3-19,36,29,24,32,18,13,87,63,47,0.00,40.00,21,13,35,0.55
2013-3-20,32,27,20,18,13,8,73,57,45,0.00,40.00,15,8,24,0.00
2013-3-21,32,24,17,22,16,10,80,69,56,0.00,40.00,13,8,23,0.55
2013-3-22,42,32,26,23,18,16,77,58,39,0.00,40.00,12,6,20,0.00
2013-3-23,39,30,22,26,22,19,91,73,47,0.00,40.00,9,3,13,0.00
2013-3-24,35,32,29,27,25,23,82,75,64,0.00,40.00,16,9,27,0.00
2013-3-25,36,33,31,33,30,25,97,88,70,0.00,40.00,18,10,29,13.79
2013-3-26,44,37,33,32,29,26,82,73,54,0.00,40.00,10,5,22,0.00
2013-3-27,46,39,31,30,26,23,84,62,41,0.00,40.00,13,8,22,0.00
2013-3-28,49,40,30,32,26,22,71,56,39,0.00,40.00,10,5,17,0.00
2013-3-29,50,40,29,31,23,18,77,52,29,0.00,40.00,9,4,20,0.00
2013-3-30,55,42,26,31,24,18,85,54,27,0.00,40.00,12,4,19,0.00
2013-3-31,60,48,39,43,32,-100,83,58,33,0.00,40.00,17,0,24,0.55
2013-4-1,48,37,28,35,17,8,86,47,26,0.00,40.00,17,8,24,0.00
2013-4-2,42,32,22,19,12,8,70,46,27,0.00,40.00,15,6,25,0.00
2013-4-3,39,32,22,20,14,10,71,50,29,0.00,40.00,10,5,17,0.00
2013-4-4,54,37,23,32,17,6,74,47,15,0.00,40.00,14,6,17,0.00
2013-4-5,43,39,36,33,25,16,82,57,34,0.00,40.00,11,6,17,0.00
2013-4-6,56,44,30,25,19,13,75,41,22,0.00,40.00,19,11,24,0.00
2013-4-7,62,57,44,44,36,19,72,47,25,0.00,40.00,24,13,34,0.00
2013-4-8,71,55,41,54,44,35,80,67,48,0.00,40.00,25,10,37,0.00
2013-4-9,56,46,42,43,41,39,95,83,62,0.00,40.00,11,5,17,0.00
2013-4-10,46,44,42,44,42,40,98,96,87,0.00,40.00,15,7,23,9.57
2013-4-11,42,39,37,40,37,35,97,93,90,0.00,40.00,19,12,30,12.86
2013-4-12,43,40,38,39,36,31,98,85,68,0.00,40.00,19,10,32,11.82
2013-4-13,42,40,38,37,32,27,89,74,56,0.00,40.00,18,10,25,1.10
2013-4-14,44,40,34,38,34,30,93,79,64,0.00,40.00,14,6,22,0.00
2013-4-15,66,48,37,51,41,35,95,78,55,0.00,40.00,21,8,25,0.00
2013-4-16,61,55,50,53,49,41,97,81,67,0.00,40.00,15,5,22,0.55
2013-4-17,52,46,44,43,37,33,91,69,58,0.00,40.00,16,10,26,0.00
2013-4-18,82,62,45,64,54,38,93,75,48,0.00,40.00,32,15,48,1.10
2013-4-19,67,48,38,59,40,29,93,75,59,0.00,40.00,29,16,43,0.55
2013-4-20,44,38,32,32,24,18,91,59,39,0.00,40.00,16,8,29,0.00
2013-4-21,42,38,33,31,25,18,72,59,49,0.00,40.00,13,7,21,0.00
2013-4-22,54,45,35,39,34,27,90,66,37,0.00,40.00,12,6,19,0.00
2013-4-23,71,57,44,55,41,31,96,59,33,0.00,40.00,22,10,29,8.38
2013-4-24,59,44,37,55,40,29,96,86,60,0.00,40.00,17,8,22,19.67
2013-4-25,51,42,34,39,32,27,84,68,42,0.00,40.00,19,8,29,1.10
2013-4-26,59,45,30,41,32,27,90,64,36,0.00,40.00,11,4,19,0.00
2013-4-27,63,51,36,42,37,33,90,62,33,0.00,40.00,12,6,18,0.00
2013-4-28,58,53,47,57,49,-100,98,88,70,0.00,40.00,12,5,16,6.72
2013-4-29,69,60,54,57,54,51,98,82,55,0.00,40.00,10,4,14,0.00
2013-4-30,74,63,52,56,54,50,94,73,49,0.00,40.00,17,9,21,0.00
2013-5-1,78,64,56,59,54,50,83,70,46,0.00,40.00,13,7,18,0.00
2013-5-2,76,62,53,54,50,46,93,67,42,0.00,40.00,15,7,20,0.00
2013-5-3,75,63,55,54,50,45,90,62,40,0.00,40.00,15,8,22,0.00
2013-5-4,65,60,57,49,44,35,71,57,34,0.00,40.00,17,10,25,0.00
2013-5-5,63,58,55,49,46,41,76,64,50,0.00,40.00,13,7,24,0.00
2013-5-6,61,58,52,49,44,37,82,62,47,0.00,40.00,11,6,18,0.00
2013-5-7,64,59,52,54,52,44,93,76,63,0.00,40.00,12,5,19,0.00
2013-5-8,73,62,54,56,51,46,91,67,44,0.00,40.00,7,3,12,0.00
2013-5-9,78,66,51,56,51,43,98,64,33,0.00,40.00,9,3,14,0.00
2013-5-10,71,63,48,61,54,-100,96,77,52,0.00,40.00,18,8,29,6.18
2013-5-11,58,49,42,47,42,33,88,77,64,0.00,40.00,16,6,25,0.00
2013-5-12,51,43,37,33,28,-100,85,59,38,0.00,40.00,16,6,29,0.00
2013-5-13,56,44,33,29,24,18,86,49,23,0.00,40.00,8,4,20,0.00
2013-5-14,79,59,40,55,40,27,68,50,34,0.00,40.00,22,10,29,0.00
2013-5-15,87,75,65,59,52,41,73,48,20,0.00,40.00,15,8,26,0.00
2013-5-16,83,65,53,56,26,-100,73,45,21,0.00,40.00,7,2,17,0.00
2013-5-17,60,57,55,49,42,-100,72,66,56,0.00,40.00,14,8,24,1.65
2013-5-18,64,60,55,53,50,46,84,69,55,0.00,40.00,14,6,23,0.00
2013-5-19,77,68,56,65,59,50,92,74,61,0.00,40.00,12,5,18,0.00
2013-5-20,91,78,63,69,64,60,92,65,38,0.00,40.00,20,8,29,0.00
2013-5-21,87,79,71,66,60,55,83,56,34,0.00,40.00,18,8,30,0.00
2013-5-22,83,73,65,64,61,57,87,66,43,0.00,40.00,19,8,32,2.75
2013-5-23,69,58,45,60,53,38,94,84,64,0.00,40.00,14,6,25,3.30
2013-5-24,57,48,42,40,36,32,84,62,45,0.00,40.00,12,6,24,0.00
2013-5-25,63,52,37,43,38,33,97,63,38,0.00,40.00,9,2,16,0.55
2013-5-26,67,57,43,42,35,29,84,46,27,0.00,40.00,7,3,13,0.00
2013-5-27,57,54,51,53,45,37,96,73,46,0.00,40.00,13,6,19,14.00
2013-5-28,81,68,55,69,61,52,98,81,63,0.00,40.00,16,6,29,5.07
2013-5-29,85,77,71,65,62,60,74,60,47,0.00,40.00,17,8,26,0.00
2013-5-30,90,77,66,67,64,59,84,65,39,0.00,40.00,21,7,25,0.00
2013-5-31,85,75,69,67,65,62,89,72,50,0.00,40.00,20,10,34,0.00
2013-6-1,79,70,63,67,64,61,97,82,56,0.00,40.00,17,8,27,5.04
2013-6-2,73,67,57,66,58,-100,96,76,56,0.00,40.00,12,6,24,0.00
2013-6-3,66,58,52,50,43,33,80,60,37,0.00,40.00,7,4,15,0.00
2013-6-4,65,58,47,52,46,40,89,64,41,0.00,40.00,10,4,15,0.00
2013-6-5,66,62,58,53,49,44,72,61,50,0.00,40.00,12,6,20,0.00
2013-6-6,64,61,58,55,50,45,74,67,58,0.00,40.00,10,6,21,0.00
2013-6-7,62,59,57,54,52,51,83,78,71,0.00,40.00,7,4,13,0.00
2013-6-8,68,63,58,55,54,52,88,72,57,0.00,40.00,7,3,13,0.00
2013-6-9,72,66,59,63,58,52,89,75,67,0.00,40.00,15,7,26,1.10
2013-6-10,70,67,64,67,65,62,96,92,86,0.00,40.00,7,3,14,10.02
2013-6-11,82,73,65,67,64,61,97,75,50,0.00,40.00,8,3,16,0.00
2013-6-12,82,72,65,68,64,62,92,78,55,0.00,40.00,12,3,16,1.10
2013-6-13,77,70,64,67,60,55,98,73,46,0.00,40.00,12,6,21,2.20
2013-6-14,74,68,63,57,55,53,75,65,49,0.00,40.00,10,5,18,0.00
2013-6-15,79,68,56,63,57,53,90,69,42,0.00,40.00,7,3,16,0.00
2013-6-16,82,73,65,66,63,60,96,73,51,0.00,40.00,12,6,19,0.00
2013-6-17,85,76,61,71,63,56,96,67,38,0.00,40.00,9,3,17,0.00
2013-6-18,70,66,62,65,59,46,91,77,53,0.00,40.00,10,6,20,0.00
2013-6-19,69,64,58,56,51,44,78,64,49,0.00,40.00,10,4,19,0.00
2013-6-20,76,63,55,60,52,47,81,67,45,0.00,40.00,9,4,13,0.00
2013-6-22,91,84,73,70,68,64,80,59,44,0.00,40.00,12,5,21,0.00
2013-6-23,90,79,71,69,66,63,89,66,42,0.00,40.00,13,4,24,0.55
2013-6-24,87,76,65,69,66,63,93,72,51,0.00,40.00,12,4,22,0.00
2013-6-25,89,79,69,74,68,63,95,69,50,0.00,40.00,13,6,26,6.22
2013-6-26,80,72,66,71,67,65,97,85,66,0.00,40.00,9,4,14,0.55
2013-6-27,79,73,67,70,69,65,97,88,61,0.00,40.00,7,3,11,1.69
2013-6-28,80,68,64,67,64,62,97,90,57,0.00,40.00,8,2,16,6.73
2013-6-29,74,68,62,65,62,58,97,81,68,0.00,40.00,8,4,16,0.00
2013-6-30,73,69,67,63,60,56,81,72,62,0.00,40.00,9,5,19,0.55
2013-7-1,69,66,61,63,60,55,98,81,63,0.00,40.00,14,8,36,0.00
2013-7-2,70,67,64,65,63,60,96,86,76,0.00,40.00,9,5,17,2.75
2013-7-3,82,71,66,70,66,64,97,85,55,0.00,40.00,10,3,15,0.00
2013-7-4,81,73,68,70,68,65,97,86,60,0.00,40.00,13,5,20,1.65
2013-7-5,78,72,68,71,68,61,98,88,60,0.00,40.00,7,2,12,3.34
2013-7-6,79,72,69,72,70,67,98,91,73,0.00,40.00,7,3,12,1.10
2013-7-7,78,72,67,70,67,63,98,85,66,0.00,40.00,9,3,16,0.00
2013-7-8,82,72,67,74,68,65,95,86,67,0.00,40.00,13,4,18,2.75
2013-7-9,87,75,70,75,71,69,97,88,66,0.00,40.00,11,4,19,2.20
2013-7-10,86,74,68,76,67,-100,94,81,67,0.00,40.00,12,4,22,1.10
2013-7-11,76,72,68,66,58,53,83,64,45,0.00,40.00,8,3,16,0.55
2013-7-12,76,69,63,64,61,58,88,74,55,0.00,40.00,7,4,13,1.65
2013-7-13,76,74,71,68,66,61,82,76,68,0.00,40.00,9,6,15,0.55
2013-7-14,83,76,69,73,70,67,96,82,65,0.00,40.00,9,3,14,0.00
2013-7-15,89,79,73,77,73,70,93,82,61,0.00,40.00,6,2,12,0.00
2013-7-16,90,82,76,77,75,72,94,78,57,0.00,40.00,7,1,12,0.55
2013-7-17,92,82,74,78,73,71,92,76,55,0.00,40.00,6,1,12,0.00
2013-7-18,90,83,74,78,74,72,94,75,56,0.00,40.00,5,1,12,0.00
2013-7-19,92,84,75,74,72,69,90,70,52,0.00,40.00,12,5,24,0.00
2013-7-20,83,77,71,73,71,69,95,83,70,0.00,40.00,7,4,19,2.79
2013-7-21,79,74,70,70,65,62,91,73,61,0.00,40.00,6,4,14,0.00
2013-7-22,77,71,66,70,66,63,95,84,76,0.00,40.00,10,2,14,4.99
2013-7-23,85,72,64,70,66,59,98,82,52,0.00,40.00,11,4,21,2.79
2013-7-24,69,65,62,57,52,49,70,61,53,0.00,40.00,11,6,22,0.00
2013-7-25,73,65,56,58,54,51,91,69,48,0.00,40.00,6,3,12,3.85
2013-7-26,77,67,55,63,57,54,96,73,48,0.00,40.00,9,2,14,6.05
2013-7-27,73,66,59,67,62,54,95,87,75,0.00,40.00,15,7,23,4.95
2013-7-28,66,60,51,56,51,48,95,75,55,0.00,40.00,10,4,20,1.10
2013-7-29,73,60,53,59,53,49,89,78,55,0.00,40.00,9,2,17,0.00
2013-7-30,74,64,54,63,58,54,97,81,62,0.00,40.00,6,2,11,0.00
2013-7-31,77,69,65,67,64,60,96,82,62,0.00,40.00,12,5,18,1.65
2013-8-1,78,70,64,67,63,58,97,79,53,0.00,40.00,8,2,15,0.55
2013-8-2,71,65,54,67,59,52,94,80,64,0.00,40.00,10,3,22,2.20
2013-8-3,79,71,63,66,60,55,98,72,47,0.00,40.00,7,2,12,8.33
2013-8-4,73,67,61,59,55,52,87,67,51,0.00,40.00,7,3,18,0.00
2013-8-5,73,64,57,62,56,52,86,73,48,0.00,40.00,8,2,12,0.00
2013-8-6,80,70,63,65,62,59,89,76,56,0.00,40.00,12,6,16,1.10
2013-8-7,81,72,65,72,68,63,97,86,69,0.00,40.00,12,4,15,1.69
2013-8-8,74,71,69,71,67,63,98,87,75,0.00,40.00,7,3,15,0.00
2013-8-9,80,71,66,63,59,51,82,65,42,0.00,40.00,6,2,11,7.19
2013-8-10,73,69,64,63,62,59,93,77,64,0.00,40.00,9,3,14,0.55
2013-8-11,78,69,58,64,61,58,98,77,52,0.00,40.00,7,2,12,0.00
2013-8-21,85,74,63,68,64,61,91,73,53,0.00,40.00,10,4,16,0.00
2013-8-22,84,73,66,69,66,63,95,80,59,0.00,40.00,7,3,13,2.75
2013-8-23,79,72,65,69,62,55,94,73,45,0.00,40.00,7,3,14,0.00
2013-8-24,78,70,60,63,59,55,97,68,47,0.00,40.00,10,3,14,0.00
2013-8-25,86,71,57,62,56,-100,90,63,39,0.00,40.00,9,3,16,6.64
2013-8-26,87,76,65,69,64,60,83,67,50,0.00,40.00,11,4,19,2.75
2013-8-27,81,74,71,73,70,69,98,88,75,0.00,40.00,14,4,24,1.10
2013-8-28,80,78,72,74,72,71,97,83,76,0.00,40.00,6,3,13,0.00
2013-8-29,81,75,68,70,69,66,97,84,64,0.00,40.00,5,2,9,0.00
2013-8-30,86,74,64,72,67,63,99,81,51,0.00,40.00,7,3,17,0.00
2013-9-5,69,65,60,62,56,46,91,73,44,0.00,40.00,6,3,14,0.00
2013-9-6,70,60,49,54,49,43,93,70,46,0.00,40.00,4,2,11,0.00
2013-9-7,82,67,54,67,58,48,89,74,55,0.00,40.00,7,4,12,0.00
2013-9-8,73,68,64,67,60,-100,90,79,70,0.00,40.00,9,4,19,0.00
2013-9-9,74,62,57,70,57,51,91,83,72,0.00,40.00,7,3,9,1.65
2013-9-10,94,81,74,73,68,64,86,67,38,0.00,40.00,9,4,16,3.85
2013-9-11,92,80,71,72,68,64,91,68,39,0.00,40.00,7,3,19,0.55
2013-9-13,62,57,52,51,46,39,77,66,55,0.00,40.00,11,6,20,0.00
2013-9-14,64,54,45,49,45,38,95,73,53,0.00,40.00,6,2,10,0.55
2013-9-15,70,53,48,56,45,-100,93,81,44,0.00,40.00,6,3,9,1.10
2013-9-16,63,58,54,56,51,45,97,78,55,0.00,40.00,9,4,16,0.00
2013-9-17,63,58,47,54,48,44,95,70,54,0.00,40.00,9,4,14,0.00
2013-9-18,56,53,52,53,50,49,94,89,86,0.00,40.00,4,2,6,0.00
2013-9-19,80,69,59,67,64,58,98,85,61,0.00,40.00,11,7,16,0.00
2013-9-22,60,55,53,49,41,-100,80,61,51,0.00,40.00,7,4,16,0.55
2013-9-23,59,56,47,47,44,42,92,66,54,0.00,40.00,7,4,14,0.00
2013-9-24,62,52,42,51,46,41,99,81,56,0.00,40.00,7,2,14,0.00
2013-9-25,68,58,47,59,53,46,98,83,63,0.00,40.00,8,3,16,0.00
2013-9-26,69,63,55,59,56,54,98,79,67,0.00,40.00,6,4,13,0.00
2013-9-27,69,60,52,58,55,51,98,83,61,0.00,40.00,9,4,14,0.00
2013-9-28,73,59,53,58,55,52,98,86,56,0.00,40.00,8,3,11,0.00
2013-9-29,65,61,57,62,55,-100,98,85,74,0.00,40.00,10,4,15,4.49
2013-9-30,71,62,58,61,57,53,98,85,56,0.00,40.00,4,3,10,1.10
2013-10-1,70,66,57,61,58,57,97,77,69,0.00,40.00,4,2,7,0.00
2013-10-2,78,66,62,63,59,54,94,78,46,0.00,40.00,7,2,12,0.55
2013-10-3,79,69,61,67,63,57,96,82,61,0.00,40.00,8,3,14,0.00
2013-10-4,77,70,65,67,65,64,94,86,68,0.00,40.00,14,5,17,0.55
2013-10-5,71,68,64,69,66,63,98,94,88,0.00,40.00,11,3,14,4.99
2013-10-6,75,67,54,67,64,51,96,89,69,0.00,40.00,19,8,24,11.16
2013-10-7,60,53,45,55,45,41,96,74,56,0.00,40.00,14,6,24,0.00
2013-10-8,65,51,41,50,44,40,97,81,41,0.00,40.00,7,2,12,0.00
2013-10-9,65,58,46,52,47,44,96,70,47,0.00,40.00,9,4,17,0.00
2013-10-10,64,51,43,51,47,42,98,87,50,0.00,40.00,5,1,11,0.00
2013-10-11,64,53,46,59,51,45,99,94,84,0.00,40.00,7,1,12,3.30
2013-10-12,71,59,49,60,54,49,98,86,48,0.00,40.00,6,2,10,2.75
2013-10-13,69,60,53,58,47,-100,97,69,37,0.00,40.00,7,3,16,7.70
2013-10-14,61,57,51,51,48,45,90,71,57,0.00,40.00,7,3,15,0.00
2013-10-15,64,56,46,61,52,44,96,88,76,0.00,40.00,11,5,16,0.00
2013-10-16,64,59,50,62,52,43,98,78,51,0.00,40.00,11,5,21,0.55
2013-10-19,48,45,42,43,40,37,95,85,73,0.00,40.00,8,4,16,10.02
2013-10-20,61,49,41,42,36,-100,81,64,40,0.00,40.00,15,6,21,0.00
2013-10-21,61,53,44,49,43,35,92,69,57,0.00,40.00,15,7,25,3.34
2013-10-22,49,42,33,35,31,26,84,66,45,0.00,40.00,11,5,17,0.00
2013-10-23,48,40,34,37,33,27,95,79,45,0.00,40.00,7,2,14,0.00
2013-10-24,46,38,31,33,31,29,92,75,54,0.00,40.00,9,4,15,0.00
2013-10-25,47,38,30,35,30,26,95,75,46,0.00,40.00,10,4,17,0.00
2013-10-26,49,43,37,38,30,25,82,60,52,0.00,40.00,19,8,34,0.55
2013-10-27,52,41,32,35,30,-100,94,70,43,0.00,40.00,8,2,17,0.00
2013-10-28,52,41,32,42,32,-100,86,75,63,0.00,40.00,7,3,14,0.00
2013-10-29,51,47,42,43,39,35,88,75,67,0.00,40.00,7,4,14,0.00
2013-10-30,59,50,35,53,44,35,99,80,60,0.00,40.00,7,3,10,0.00
2013-10-31,64,61,59,60,58,55,96,90,78,0.00,40.00,24,15,32,6.60
2013-11-1,60,51,47,59,45,39,97,80,70,0.00,40.00,17,9,38,0.00
2013-12-8,30,25,17,26,19,11,93,78,66,0.00,40.00,15,7,22,0.00
2013-12-9,31,27,21,30,22,11,97,79,65,0.00,40.00,19,11,28,0.00
2013-12-10,25,20,13,11,8,1,74,60,44,0.00,40.00,25,10,37,0.00
2013-12-11,25,19,10,17,11,4,85,72,63,0.00,40.00,13,7,18,0.55
2013-12-12,16,11,5,8,3,-3,86,69,53,0.00,40.00,19,8,27,0.00
2013-12-13,30,22,15,23,14,6,84,69,60,0.00,40.00,12,6,18,0.00
2013-12-14,31,26,23,31,24,-100,98,93,85,0.00,40.00,13,8,21,31.41